Regional Weather Roundup
Issued by NWS Cleveland, OH

Home | Current Version | Previous Version | Graphics & Text | Print | Product List | Glossary On
Versions: 1 2 3 4 5 6 7 8 9 10 11 12 13 14 15 16 17 18 19 20 21 22 23 24 25 26 27 28 29 30 31 32 33 34 35 36 37 38 39 40 41 42 43 44 45 46 47 48 49 50
162
ASUS41 KCLE 240900
RWRCLE
OHIO REGIONAL WEATHER ROUNDUP
NATIONAL WEATHER SERVICE WILMINGTON, OH
400 AM EST FRI NOV 24 2017

NOTE: "FAIR" INDICATES FEW OR NO CLOUDS BELOW 12,000 FEET WITH NO
SIGNIFICANT WEATHER AND/OR OBSTRUCTIONS TO VISIBILITY.

OHZ001>008-015>018-024>027-034-035-043-044-241000-
   NORTHWEST OHIO

CITY           SKY/WX    TMP DP  RH WIND       PRES   REMARKS
DEFIANCE       FAIR      31  23  72 SW3       29.92F
FINDLAY        FAIR      31  24  75 S8        29.93F WCI  23
TOLEDO EXPRESS FAIR      31  26  82 S6        29.91F WCI  25
TOLEDO EXEC    FAIR      29  24  82 S8        29.93F WCI  21
LIMA           FAIR      32  24  72 S7        29.93F WCI  26
$$

OHZ009>014-019>023-028>033-038-089-241000-
   NORTHEAST OHIO

CITY           SKY/WX    TMP DP  RH WIND       PRES   REMARKS
CLE-HOPKINS    FAIR      34  24  67 S7        29.98S WCI  28
CLE-LAKEFRONT  FAIR      34  24  67 S8        29.95S WCI  27
CUY CO. ARPT   NOT AVBL
LORAIN-ELYRIA  FAIR      29  20  69 S6        29.95F WCI  23
ASHTABULA      FAIR      31  24  75 S5        29.97S WCI  26
AKRON-CANTON   FAIR      28  21  75 S7        29.96F WCI  21
WOOSTER        NOT AVBL
MANSFIELD      FAIR      30  23  75 S5        29.95S WCI  25
YOUNGSTOWN     FAIR      30  22  72 S5        29.96F WCI  25
$$

OHZ042-051>053-060>062-070>072-077>081-241000-
  SOUTHWEST OHIO

CITY           SKY/WX    TMP DP  RH WIND       PRES   REMARKS
CINC-COVINGTON FAIR      32  25  75 S5        29.98F WCI  27
CINC-LUNKEN    FAIR      26  25  96 CALM      30.03F FOG
HAMILTON       FAIR      29  26  89 E5        30.00F WCI  24
DAYTON         NOT AVBL
WRIGHT-PAT AFB FAIR      29  24  82 SE6       29.97F WCI  22
DAYTON GENERAL FAIR      30  23  75 S9        29.96F WCI  22
WILMINGTON     FAIR      30  24  78 S3        29.99F
$$

OHZ036-037-039>041-045>050-054>059-063>069-073>076-082>088-241000-
  CENTRAL AND SOUTHEAST OHIO

CITY           SKY/WX    TMP DP  RH WIND       PRES   REMARKS
COLUMBUS       FAIR      30  24  78 CALM      30.00S
OSU AIRPORT    FAIR      31  25  78 S6        29.98F WCI  25
BOLTON FIELD   FAIR      28  24  84 S5        30.00S WCI  23
RICKENBACK AFB NOT AVBL
NEWARK         FAIR      25  21  85 CALM      29.99F
MARION         FAIR      29  23  78 S9        29.96F WCI  20
LANCASTER      FAIR      24  22  91 S3        30.00F
ZANESVILLE     FAIR      26  21  81 CALM      30.00F
NEW PHILLY     FAIR      27  23  85 SE6       30.01S WCI  20
$$




USA.gov is the U.S. government's official web portal to all federal, state and local government web resources and services.